Powrót do katalogu

STARLINK-36123

AktywnyŁącznośćVLEO
NORAD 67007·PAYLOAD·🇺🇸 United States

Wystrzelony Dec 10, 2025 z Vandenberg Space Force Base

Loading…

Następne Przeloty (najbliższe 24 godziny)

TLE

ŚwieżeSource: CelesTrak SupGP

Epoka: Sep 14, 2026, 15:53 UTC

1 67007C 25293E   26257.66229167 -.00022967  00000+0 -19252-2 0  2577
2 67007  70.0019 337.8889 0003410 272.0368 195.7003 14.98331595    15

Śledź STARLINK-36123 w czasie rzeczywistym z AllMySat

Download on the App Store